Dumas, TX

11:15 AM CDT on July 27, 2017 (GMT -0500)
Moore County

Weather History for KDUX - May, 2013

Change the Weather History Date:

Monday, May 27, 2013

  Actual Average (KDHT) Record (KDHT)
Temperature  
Mean Temperature 80 °F -  
Max Temperature 94 °F 82 °F 97 °F (2006)
Min Temperature 68 °F 52 °F 39 °F (1992)
Cooling Degree Days 16    
Growing Degree Days 30 (Base 50)    
Moisture  
Dew Point 31 °F    
Average Humidity 27    
Maximum Humidity 69    
Minimum Humidity 4    
Precipitation  
Precipitation 0.00 in - - ()
Sea Level Pressure  
Sea Level Pressure 29.80 in    
Wind  
Wind Speed 21 mph (SW)    
Max Wind Speed 29 mph    
Max Gust Speed 41 mph    
Visibility 10 miles    
Events      
Averages and records for this station are not official NWS values.
T = Trace of Precipitation, MM = Missing Value Source: NWS Daily Summary

Daily Weather History Graph

Daily Weather History Graph

Search for Another Location

Airport or City:

Trip Planner

Search our weather history database for the weather conditions in past years. The results will help you decide how hot, cold, wet, or windy it might be!

Date:

Astronomy

May. 27, 2013 Rise Set
Actual Time 6:34 AM CDT 8:55 PM CDT
Civil Twilight 6:05 AM CDT 9:25 PM CDT
Nautical Twilight 5:29 AM CDT 10:01 PM CDT
Astronomical Twilight 4:50 AM CDT 10:41 PM CDT
Moon 11:39 PM CDT 9:13 AM CDT
Length of Visible Light 15h 19m
Length of Day
14h 21m
Waning Gibbous, 91% of the Moon is Illuminated
May 27
Waning Gibbous
May 31
Last Quarter
Jun 8
New
Jun 16
First Quarter
Jun 23
Full

Hourly Weather History & Observations

Time (CDT) Temp. Dew Point Humidity Pressure Visibility Wind Dir Wind Speed Gust Speed Precip Events Conditions
12:15 AM 78.8 °F 53.6 °F 42% 29.86 in 10.0 mi South 21.9 mph 32.2 mph N/A   Clear
12:35 AM 77.4 °F 53.2 °F 43% 29.86 in 10.0 mi South 23.0 mph - N/A   Clear
12:55 AM 77.0 °F 54.3 °F 45% 29.87 in 10.0 mi South 21.9 mph 26.5 mph N/A   Clear
1:15 AM 77.2 °F 57.6 °F 51% 29.86 in 10.0 mi South 27.6 mph 34.5 mph N/A   Clear
1:35 AM 76.3 °F 58.5 °F 54% 29.86 in 10.0 mi South 25.3 mph 31.1 mph N/A   Clear
1:55 AM 75.7 °F 59.5 °F 57% 29.86 in 10.0 mi South 24.2 mph 33.4 mph N/A   Clear
2:15 AM 75.2 °F 60.1 °F 59% 29.85 in 10.0 mi South 25.3 mph 33.4 mph N/A   Clear
2:35 AM 75.0 °F 60.3 °F 60% 29.84 in 10.0 mi SSW 25.3 mph 36.8 mph N/A   Clear
2:55 AM 74.3 °F 60.4 °F 62% 29.84 in 10.0 mi SSW 25.3 mph 34.5 mph N/A   Clear
3:15 AM 73.8 °F 60.3 °F 63% 29.84 in 10.0 mi SSW 23.0 mph 32.2 mph N/A   Clear
3:35 AM 72.9 °F 59.7 °F 63% 29.84 in 10.0 mi SSW 21.9 mph 26.5 mph N/A   Clear
3:55 AM 72.5 °F 59.2 °F 63% 29.83 in 10.0 mi SSW 20.7 mph 27.6 mph N/A   Clear
4:15 AM 72.5 °F 59.0 °F 62% 29.83 in 10.0 mi SSW 25.3 mph 29.9 mph N/A   Clear
4:35 AM 71.8 °F 58.6 °F 63% 29.83 in 10.0 mi SSW 20.7 mph 25.3 mph N/A   Clear
4:55 AM 71.1 °F 58.3 °F 64% 29.83 in 10.0 mi SSW 20.7 mph 26.5 mph N/A   Clear
5:15 AM 70.7 °F 58.1 °F 64% 29.83 in 10.0 mi SSW 21.9 mph - N/A   Clear
5:35 AM 70.0 °F 58.1 °F 66% 29.83 in 10.0 mi SSW 21.9 mph 26.5 mph N/A   Clear
5:55 AM 69.4 °F 58.3 °F 68% 29.83 in 10.0 mi SSW 19.6 mph 24.2 mph N/A   Clear
6:15 AM 69.1 °F 58.1 °F 68% 29.84 in 10.0 mi SW 17.3 mph - N/A   Clear
6:35 AM 68.2 °F 57.7 °F 69% 29.83 in 10.0 mi SSW 18.4 mph 24.2 mph N/A   Clear
6:55 AM 68.2 °F 57.7 °F 69% 29.83 in 10.0 mi SSW 17.3 mph - N/A   Clear
7:15 AM 68.2 °F 57.6 °F 69% 29.83 in 10.0 mi SW 18.4 mph - N/A   Clear
7:35 AM 69.3 °F 57.2 °F 65% 29.84 in 10.0 mi SW 19.6 mph 24.2 mph N/A   Clear
7:55 AM 69.8 °F 57.2 °F 64% 29.84 in 10.0 mi SW 20.7 mph - N/A   Clear
8:15 AM 71.4 °F 55.0 °F 56% 29.84 in 10.0 mi SW 20.7 mph 27.6 mph N/A   Clear
8:35 AM 73.6 °F 50.5 °F 44% 29.84 in 10.0 mi WSW 24.2 mph 32.2 mph N/A   Clear
8:55 AM 76.1 °F 44.1 °F 32% 29.85 in 10.0 mi WSW 23.0 mph 28.8 mph N/A   Clear
9:15 AM 79.0 °F 37.2 °F 22% 29.85 in 10.0 mi WSW 23.0 mph - N/A   Clear
9:35 AM 81.0 °F 34.2 °F 18% 29.85 in 10.0 mi WSW 23.0 mph - N/A   Clear
9:55 AM 81.5 °F 31.1 °F 16% 29.85 in 10.0 mi WSW 20.7 mph 24.2 mph N/A   Clear
10:15 AM 83.3 °F 27.1 °F 13% 29.84 in 10.0 mi WSW 18.4 mph - N/A   Clear
10:35 AM 84.6 °F 25.3 °F 12% 29.84 in 10.0 mi WSW 18.4 mph - N/A   Clear
10:55 AM 86.2 °F 25.3 °F 11% 29.83 in 10.0 mi WSW 18.4 mph - N/A   Clear
11:15 AM 87.1 °F 26.1 °F 11% 29.83 in 10.0 mi SW 17.3 mph 23.0 mph N/A   Clear
11:35 AM 88.3 °F 26.6 °F 11% 29.83 in 10.0 mi WSW 17.3 mph 21.9 mph N/A   Clear
11:55 AM 89.4 °F 24.6 °F 10% 29.82 in 10.0 mi SW 16.1 mph 27.6 mph N/A   Clear
12:15 PM 90.7 °F 20.1 °F 8% 29.83 in 10.0 mi SW 20.7 mph 25.3 mph N/A   Clear
12:35 PM 91.9 °F 21.4 °F 8% 29.82 in 10.0 mi WSW 17.3 mph 24.2 mph N/A   Clear
12:55 PM 90.7 °F 15.4 °F 6% 29.82 in 10.0 mi WSW 18.4 mph 32.2 mph N/A   Clear
1:15 PM 91.8 °F 14.2 °F 6% 29.81 in 10.0 mi WSW 21.9 mph 27.6 mph N/A   Clear
1:35 PM 92.3 °F 13.3 °F 5% 29.80 in 10.0 mi SW 24.2 mph 28.8 mph N/A   Clear
1:55 PM 93.2 °F 11.8 °F 5% 29.79 in 10.0 mi WSW 18.4 mph 34.5 mph N/A   Clear
2:15 PM 91.6 °F 9.9 °F 5% 29.79 in 10.0 mi SW 27.6 mph 32.2 mph N/A   Clear
2:35 PM 91.8 °F 9.1 °F 5% 29.78 in 10.0 mi SW 26.5 mph 32.2 mph N/A   Clear
2:55 PM 91.9 °F 8.1 °F 4% 29.78 in 10.0 mi WSW 20.7 mph 31.1 mph N/A   Clear
3:15 PM 91.6 °F 4.5 °F 4% 29.77 in 10.0 mi WSW 21.9 mph 27.6 mph N/A   Clear
3:35 PM 90.5 °F 3.2 °F 4% 29.76 in 10.0 mi SW 23.0 mph 28.8 mph N/A   Clear
3:55 PM 93.6 °F 5.9 °F 4% 29.76 in 10.0 mi WSW 25.3 mph 32.2 mph N/A   Clear
4:15 PM 92.8 °F 6.3 °F 4% 29.76 in 10.0 mi SW 27.6 mph 33.4 mph N/A   Clear
4:35 PM 92.1 °F 6.3 °F 4% 29.75 in 10.0 mi SW 21.9 mph 34.5 mph N/A   Clear
4:55 PM 90.5 °F 5.2 °F 4% 29.75 in 10.0 mi SW 25.3 mph 34.5 mph N/A   Clear
5:15 PM 90.5 °F 5.0 °F 4% 29.75 in 10.0 mi SW 25.3 mph 32.2 mph N/A   Clear
5:35 PM 93.6 °F 5.7 °F 4% 29.74 in 10.0 mi WSW 28.8 mph 41.4 mph N/A   Clear
5:55 PM 90.0 °F 5.0 °F 4% 29.74 in 10.0 mi SW 24.2 mph 32.2 mph N/A   Clear
6:15 PM 91.6 °F 8.1 °F 4% 29.73 in 10.0 mi SW 24.2 mph 32.2 mph N/A   Clear
6:35 PM 89.6 °F 7.9 °F 5% 29.73 in 10.0 mi SW 23.0 mph 32.2 mph N/A   Clear
6:55 PM 88.9 °F 7.7 °F 5% 29.73 in 10.0 mi SW 19.6 mph - N/A   Clear
7:15 PM 88.0 °F 6.6 °F 5% 29.73 in 10.0 mi WSW 19.6 mph 29.9 mph N/A   Clear
7:35 PM 87.8 °F 6.8 °F 5% 29.72 in 10.0 mi WSW 18.4 mph 26.5 mph N/A   Clear
7:55 PM 88.3 °F 8.8 °F 5% 29.72 in 10.0 mi WSW 16.1 mph - N/A   Clear
8:15 PM 88.9 °F 10.2 °F 5% 29.71 in 10.0 mi SW 16.1 mph - N/A   Clear
8:35 PM 85.1 °F 11.8 °F 6% 29.71 in 10.0 mi SSW 9.2 mph - N/A   Clear
8:55 PM 78.4 °F 18.7 °F 11% 29.71 in 10.0 mi South 8.1 mph - N/A   Clear
9:15 PM 77.4 °F 14.9 °F 9% 29.72 in 10.0 mi South 9.2 mph - N/A   Clear
9:35 PM 73.6 °F 14.4 °F 10% 29.73 in 10.0 mi SW 10.4 mph - N/A   Clear
9:55 PM 72.7 °F 14.9 °F 11% 29.73 in 10.0 mi SSW 10.4 mph - N/A   Clear
10:15 PM 76.8 °F 13.6 °F 9% 29.73 in 10.0 mi SSW 13.8 mph - N/A   Clear
10:35 PM 74.1 °F 14.7 °F 10% 29.74 in 10.0 mi SSW 11.5 mph - N/A   Clear
10:55 PM 71.6 °F 16.9 °F 12% 29.75 in 10.0 mi SSW 11.5 mph - N/A   Clear
11:15 PM 72.5 °F 17.2 °F 12% 29.75 in 10.0 mi SSW 12.7 mph - N/A   Clear
11:35 PM 72.0 °F 16.9 °F 12% 29.75 in 10.0 mi SSW 11.5 mph - N/A   Clear
11:55 PM 70.9 °F 17.4 °F 13% 29.75 in 10.0 mi SSW 11.5 mph - N/A   Clear